Opa Locka, FL

6:07 AM EDT on May 26, 2017 (GMT -0400)
Opa Locka

Weather History for KOPF - February, 2014

Change the Weather History Date:

Friday, February 21, 2014

  Actual Average Record
Temperature  
Mean Temperature 78 °F -  
Max Temperature 84 °F 78 °F 86 °F (1962)
Min Temperature 72 °F 61 °F 41 °F (1958)
Cooling Degree Days 14    
Growing Degree Days 28 (Base 50)    
Moisture  
Dew Point 71 °F    
Average Humidity 81    
Maximum Humidity 97    
Minimum Humidity 57    
Precipitation  
Precipitation 0.00 in - - ()
Sea Level Pressure  
Sea Level Pressure 30.08 in    
Wind  
Wind Speed 13 mph (SSE)    
Max Wind Speed 20 mph    
Max Gust Speed 25 mph    
Visibility 10 miles    
Events Rain    
Averages and records for this station are not official NWS values.
T = Trace of Precipitation, MM = Missing Value Source: NWS Daily Summary

Daily Weather History Graph

Daily Weather History Graph

Search for Another Location

Airport or City:

Trip Planner

Search our weather history database for the weather conditions in past years. The results will help you decide how hot, cold, wet, or windy it might be!

Date:

Astronomy

Feb. 21, 2014 Rise Set
Actual Time 6:51 AM EST 6:18 PM EST
Civil Twilight 6:28 AM EST 6:41 PM EST
Nautical Twilight 6:01 AM EST 7:08 PM EST
Astronomical Twilight 5:34 AM EST 7:35 PM EST
Moon No Moon Rise 10:53 AM EST (2/21)
Length of Visible Light 12h 13m
Length of Day
11h 26m
Waning Gibbous, 61% of the Moon is Illuminated
Feb 21
Waning Gibbous
Feb 22
Last Quarter
Mar 1
New
Mar 8
First Quarter
Mar 16
Full

Hourly Weather History & Observations

Time (EST) Temp. Heat Index Dew Point Humidity Pressure Visibility Wind Dir Wind Speed Gust Speed Precip Events Conditions
12:27 AM 75.9 °F - 72.0 °F 87% 30.09 in 10.0 mi SE 12.7 mph - N/A   Mostly Cloudy
12:53 AM 75.9 °F - 72.0 °F 87% 30.09 in 10.0 mi SE 15.0 mph - N/A   Mostly Cloudy
1:01 AM 75.9 °F - 72.0 °F 87% 30.08 in 10.0 mi SE 12.7 mph - N/A   Mostly Cloudy
1:13 AM 75.9 °F - 72.0 °F 87% 30.08 in 10.0 mi SE 13.8 mph - N/A   Scattered Clouds
1:53 AM 75.9 °F - 72.0 °F 87% 30.07 in 10.0 mi SE 13.8 mph - N/A   Mostly Cloudy
2:01 AM 75.9 °F - 72.0 °F 87% 30.06 in 10.0 mi SSE 12.7 mph - N/A   Mostly Cloudy
2:53 AM 75.0 °F - 72.0 °F 90% 30.05 in 10.0 mi SE 13.8 mph - 0.00 in Rain Light Rain
3:01 AM 75.0 °F - 72.0 °F 90% 30.05 in 10.0 mi SSE 13.8 mph - 0.00 in   Mostly Cloudy
3:53 AM 75.0 °F - 71.1 °F 87% 30.06 in 10.0 mi SE 10.4 mph - 0.00 in   Scattered Clouds
4:53 AM 75.0 °F - 71.1 °F 87% 30.07 in 10.0 mi SSE 8.1 mph - N/A   Scattered Clouds
5:53 AM 73.9 °F - 72.0 °F 93% 30.07 in 10.0 mi SE 9.2 mph - N/A   Clear
6:30 AM 75.0 °F - 72.0 °F 90% 30.08 in 10.0 mi SSE 8.1 mph - N/A   Mostly Cloudy
6:44 AM 75.0 °F - 72.0 °F 90% 30.09 in 10.0 mi SSE 9.2 mph - N/A   Mostly Cloudy
6:53 AM 75.0 °F - 72.0 °F 90% 30.09 in 10.0 mi SSE 10.4 mph - N/A   Partly Cloudy
7:53 AM 77.0 °F - 72.0 °F 84% 30.11 in 10.0 mi SSE 11.5 mph - N/A   Partly Cloudy
8:53 AM 78.1 °F - 71.1 °F 79% 30.12 in 10.0 mi SSE 13.8 mph - N/A   Mostly Cloudy
9:41 AM 81.0 °F 84.4 °F 70.0 °F 69% 30.12 in 10.0 mi SSE 15.0 mph 23.0 mph N/A   Mostly Cloudy
9:53 AM 82.0 °F 85.9 °F 70.0 °F 67% 30.13 in 10.0 mi SSE 15.0 mph - N/A   Mostly Cloudy
10:14 AM 81.0 °F 84.1 °F 69.1 °F 67% 30.12 in 10.0 mi SSE 19.6 mph - N/A   Mostly Cloudy
10:39 AM 82.0 °F 85.5 °F 69.1 °F 65% 30.11 in 10.0 mi SSE 15.0 mph - N/A   Mostly Cloudy
10:53 AM 82.0 °F 85.5 °F 69.1 °F 65% 30.11 in 10.0 mi SSE 16.1 mph - N/A   Mostly Cloudy
11:53 AM 82.9 °F 86.5 °F 69.1 °F 63% 30.07 in 10.0 mi South 18.4 mph 25.3 mph N/A   Mostly Cloudy
12:53 PM 82.9 °F 86.5 °F 69.1 °F 63% 30.09 in 10.0 mi South 16.1 mph - N/A   Scattered Clouds
1:53 PM 82.9 °F 85.8 °F 68.0 °F 60% 30.06 in 10.0 mi SSE 13.8 mph - N/A   Scattered Clouds
2:53 PM 84.9 °F 88.2 °F 68.0 °F 57% 30.05 in 10.0 mi SSE 12.7 mph 21.9 mph N/A   Partly Cloudy
3:53 PM 82.0 °F 84.9 °F 68.0 °F 62% 30.05 in 10.0 mi South 15.0 mph - N/A   Clear
4:53 PM 80.1 °F 83.2 °F 70.0 °F 71% 30.06 in 10.0 mi South 16.1 mph - N/A   Clear
5:53 PM 78.1 °F - 71.1 °F 79% 30.06 in 10.0 mi South 12.7 mph - N/A   Partly Cloudy
6:53 PM 77.0 °F - 71.1 °F 82% 30.06 in 10.0 mi South 11.5 mph - N/A   Clear
7:53 PM 75.9 °F - 72.0 °F 87% 30.08 in 10.0 mi South 6.9 mph - N/A   Clear
8:53 PM 75.0 °F - 73.0 °F 94% 30.09 in 10.0 mi SSE 6.9 mph - N/A   Clear
9:53 PM 75.0 °F - 73.0 °F 94% 30.08 in 10.0 mi SSE 8.1 mph - N/A   Clear
10:53 PM 73.9 °F - 72.0 °F 93% 30.08 in 10.0 mi SSE 4.6 mph - N/A   Clear
11:53 PM 72.0 °F - 71.1 °F 97% 30.07 in 10.0 mi SSE 8.1 mph - N/A   Clear